Weather History for Langara Island, BC

Change the Weather History Date:

Sunday, January 27, 2013

  Actual Average Record
Temperature  
Mean Temperature 37 °F -  
Max Temperature 39 °F - - ()
Min Temperature 35 °F - - ()
Degree Days  
Heating Degree Days 28    
Moisture  
Dew Point 33 °F    
Average Humidity 82    
Maximum Humidity 96    
Minimum Humidity 66    
Precipitation  
Precipitation 0.00 in - - ()
Sea Level Pressure  
Sea Level Pressure 29.83 in    
Wind  
Wind Speed 21 mph ()    
Max Wind Speed 28 mph    
Max Gust Speed 40 mph    
T = Trace of Precipitation, MM = Missing Value Source: Averaged Metar Reports

Daily Weather History Graph

Daily Weather History Graph

Search for Another Location

Airport:

Trip Planner

Search our weather history database for the weather conditions in past years. The results will help you decide how hot, cold, wet, or windy it might be!

Date:

Astronomy

Jan. 27, 2013 Rise Set
Actual Time 8:47 AM PST 5:23 PM PST
Civil Twilight 8:07 AM PST 6:02 PM PST
Nautical Twilight 7:24 AM PST 6:46 PM PST
Astronomical Twilight 6:42 AM PST 7:28 PM PST
Moon 6:43 PM PST (1/27) 8:29 AM PST (1/27)
Length of Visible Light 9h 55m
Length of Day
8h 35m
Full, 100% of the Moon is Illuminated
Jan 27
Full
Feb 3
Last Quarter
Feb 9
New
Feb 17
First Quarter
Feb 25
Full

Hourly Weather History & Observations

Time (PST) Temp. Windchill Dew Point Humidity Pressure Visibility Wind Dir Wind Speed Gust Speed Precip Events Conditions
12:00 AM 39.6 °F 29.2 °F 36.9 °F 90% 29.74 in - West 23.0 mph - N/A   Unknown
1:00 AM 39.4 °F 28.1 °F 35.8 °F 87% 29.74 in - West 27.6 mph 33.4 mph N/A   Unknown
2:00 AM 37.8 °F 26.1 °F 35.1 °F 90% 29.75 in - NW 26.5 mph - N/A   Unknown
3:00 AM 38.7 °F 28.8 °F 36.0 °F 90% 29.74 in - West 19.6 mph - N/A   Unknown
4:00 AM 39 °F - 36 °F 83% 29.75 in - NW 23.0 mph - -  
4:00 AM 38.8 °F 28.3 °F 35.6 °F 88% 29.75 in - NW 23.0 mph 32.2 mph N/A   Unknown
5:00 AM 38.8 °F 28.3 °F 34.7 °F 85% 29.76 in - NW 23.0 mph - N/A   Unknown
6:00 AM 39.7 °F 29.0 °F 34.7 °F 82% 29.76 in - NW 25.3 mph 38.0 mph N/A   Unknown
7:00 AM 39.0 °F 27.6 °F 31.8 °F 75% 29.77 in - NW 27.6 mph 40.3 mph N/A   Unknown
8:00 AM 37.6 °F 26.9 °F 31.6 °F 79% 29.79 in - WNW 21.9 mph 39.1 mph N/A   Unknown
9:00 AM 36.3 °F 25.2 °F 33.6 °F 90% 29.81 in - NW 21.9 mph 29.9 mph N/A   Unknown
10:00 AM 38 °F - 31 °F 67% 29.82 in - NNW 24.2 mph - -  
10:00 AM 38.5 °F 27.5 °F 30.9 °F 74% 29.82 in - NNW 24.2 mph - N/A   Unknown
11:00 AM 38.7 °F 27.1 °F 28.2 °F 66% 29.84 in - NW 27.6 mph 33.4 mph N/A   Unknown
12:00 PM 38.8 °F 27.6 °F 29.5 °F 69% 29.86 in - NW 26.5 mph - N/A   Unknown
1:00 PM 38.3 °F 26.6 °F 29.8 °F 72% 29.86 in - NW 27.6 mph - N/A   Unknown
2:00 PM 37.9 °F 26.6 °F 31.6 °F 78% 29.88 in - NW 25.3 mph 32.2 mph N/A   Unknown
3:00 PM 38.8 °F 27.8 °F 30.9 °F 73% 29.88 in - NW 25.3 mph 31.1 mph N/A   Unknown
4:00 PM 38 °F - 32 °F 70% 29.90 in - NW 23.0 mph - -  
4:00 PM 38.3 °F 27.6 °F 31.6 °F 77% 29.90 in - NW 23.0 mph 32.2 mph N/A   Unknown
5:00 PM 37.9 °F 26.3 °F 30.7 °F 75% 29.89 in - NW 26.5 mph 33.4 mph N/A   Unknown
6:00 PM 37.2 °F 26.1 °F 31.8 °F 81% 29.90 in - NW 23.0 mph 28.8 mph N/A   Unknown
7:00 PM 36.0 °F 25.6 °F 33.1 °F 89% 29.91 in - NW 18.4 mph - N/A   Unknown
8:00 PM 36.0 °F 26.3 °F 33.8 °F 92% 29.91 in - WNW 16.1 mph - N/A   Unknown
9:00 PM 35.8 °F 25.4 °F 34.3 °F 94% 29.89 in - WNW 18.4 mph - N/A   Unknown
10:00 PM 36 °F - 35 °F 95% 29.88 in - West 16.1 mph - -  
10:00 PM 36.3 °F 26.8 °F 35.1 °F 95% 29.88 in - West 16.1 mph - N/A   Unknown
11:00 PM 36.5 °F 25.7 °F 35.4 °F 96% 29.87 in - West 20.7 mph - N/A   Unknown